This is the latest recevied weather packets stored in our database for station/object KF0JJO. If no packets are shown the sender has not sent any weather packets the latest 10 day(s).
| Time | Temp. | Humidity | Pressure | Rain* | Wind** | Luminosity | Snow |
|---|---|---|---|---|---|---|---|
| 1777204898 | 7.22° C | 89% | 1049.1 hPa | 0 mm | - | 17 W/m² | - |
| 1777204593 | 7.22° C | 89% | 1048.9 hPa | 0 mm | - | 12 W/m² | - |
| 1777204288 | 7.22° C | 89% | 1049.3 hPa | 0 mm | - | 9 W/m² | - |
| 1777203986 | 7.22° C | 89% | 1049.3 hPa | 0 mm | - | 4 W/m² | - |
| 1777203684 | 7.22° C | 89% | 1049 hPa | 3.56 mm | - | 5 W/m² | - |
| 1777203381 | 7.78° C | 89% | 1049.2 hPa | 4.83 mm | - | 3 W/m² | - |
| 1777203078 | 7.78° C | 88% | 1049.4 hPa | 3.05 mm | - | 1 W/m² | - |
| 1777202775 | 7.78° C | 87% | 1049.8 hPa | 1.78 mm | - | 1 W/m² | - |
| 1777202473 | 7.78° C | 86% | 1049.4 hPa | 0 mm | - | 1 W/m² | - |
| 1777202173 | 7.78° C | 85% | 1049.2 hPa | 0 mm | - | 1 W/m² | - |
| 1777201869 | 7.78° C | 85% | 1049.2 hPa | 0 mm | - | 0 W/m² | - |
| 1777201566 | 7.78° C | 85% | 1048.8 hPa | 0 mm | - | 0 W/m² | - |
| 1777201262 | 7.78° C | 85% | 1048.6 hPa | 0 mm | - | 0 W/m² | - |
| 1777200957 | 7.78° C | 85% | 1048.7 hPa | 0 mm | - | 0 W/m² | - |
| 1777200655 | 7.78° C | 85% | 1048.4 hPa | 0 mm | - | 0 W/m² | - |
| 1777200353 | 7.78° C | 85% | 1048.5 hPa | 0 mm | - | 0 W/m² | - |
| 1777200050 | 7.78° C | 85% | 1048.3 hPa | 0 mm | - | 0 W/m² | - |
| 1777199745 | 7.78° C | 85% | 1048.4 hPa | 0 mm | - | 0 W/m² | - |
| 1777199441 | 7.78° C | 85% | 1048.3 hPa | 0 mm | - | 0 W/m² | - |
| 1777199136 | 7.78° C | 84% | 1047.9 hPa | 0 mm | - | 0 W/m² | - |
| 1777198832 | 7.78° C | 84% | 1048.1 hPa | 0 mm | - | 0 W/m² | - |
| 1777198528 | 8.33° C | 84% | 1048.2 hPa | 0 mm | - | 0 W/m² | - |
| 1777198226 | 8.33° C | 84% | 1048 hPa | 0 mm | - | 0 W/m² | - |
| 1777197921 | 8.33° C | 83% | 1048.2 hPa | 0 mm | - | 0 W/m² | - |
| 1777197616 | 8.33° C | 84% | 1048 hPa | 0 mm | - | 0 W/m² | - |
* Rain latest hour (hover to see other rain measurements)
** Current wind speed in m/s (hover to see current wind gust speed)